[Iaude] MPEC E76: 2024 EW1 [a=0.94,e=0.12,i=6.3,H=27.1]
    mpec at cfa.harvard.edu 
    mpec at cfa.harvard.edu
       
    Wed Mar  6 08:09:20 EST 2024
    
    
  
M.P.E.C. 2024-E76                                 Issued 2024 March 6, 13:07 UT
     The Minor Planet Electronic Circulars contain information on unusual
         minor planets, routine data on comets and natural satellites,
         and occasional editorial announcements.  They are published
    on behalf of Division F of the International Astronomical Union by the
          Minor Planet Center, Smithsonian Astrophysical Observatory,
                          Cambridge, MA 02138, U.S.A.
			  
             Prepared using the Tamkin Foundation Computer Network
                              MPC at CFA.HARVARD.EDU
            URL https://www.minorplanetcenter.net/    ISSN 1523-6714
                                    2024 EW1                                    
Observations:
     K24E01W*1C2024 03 05.28471010 52 33.168+10 30 56.59         21.40GVEE076G96
     K24E01W 1C2024 03 05.28989710 52 29.989+10 30 36.50         20.37GVEE076G96
     K24E01W 1C2024 03 05.29506610 52 26.857+10 30 16.20               VEE076G96
     K24E01W 1C2024 03 05.30024010 52 23.765+10 29 55.93         21.26GVEE076G96
     K24E01W  C2024 03 05.32725010 52 06.925+10 28 05.17         21.2 GVEE076H01
     K24E01W  C2024 03 05.33162710 52 04.304+10 27 47.86         20.6 GVEE076H01
     K24E01W  C2024 03 05.34137810 51 58.444+10 27 09.01         20.7 GVEE076H01
     K24E01W  C2024 03 05.34873310 51 54.052+10 26 39.76         21.0 GVEE076H01
     K24E01W KC2024 03 05.41474710 51 15.232+10 22 19.85         21.29GVEE076V06
     K24E01W KC2024 03 05.41598810 51 14.494+10 22 14.59         21.38GVEE076V06
     K24E01W KC2024 03 05.41722810 51 13.756+10 22 09.52         21.89GVEE076V06
     K24E01W KC2024 03 05.41846810 51 13.003+10 22 04.62         21.53GVEE076V06
     K24E01W KC2024 03 06.18571910 44 31.16 +09 31 37.1          20.8 GXEE076858
     K24E01W KC2024 03 06.20409710 44 20.49 +09 30 25.7          21.0 GXEE076858
     K24E01W |C2024 03 06.25067010 43 47.700+09 30 14.60         20.6 GVEE076807
     K24E01W |C2024 03 06.25617910 43 44.450+09 29 52.80         20.7 GVEE076807
     K24E01W |C2024 03 06.26168010 43 41.210+09 29 30.60         20.6 GVEE076807
Observer details:
807 Cerro Tololo Observatory, La Serena.  Observers T. Linder, R. Holmes.
    0.61-m f/6.8 Ritchey-Chretien + CCD.
858 Tebbutt Observatory, Edgewood.  Observer F. B. Zoltowski.  0.51-m f/8.1
    Schmidt-Cassegrain + CCD.
G96 Mt. Lemmon Survey.  Observer G. J. Leonard.  Measurers T. Beuden, V. F.
    Carvajal, D. Fay, J. B. Fazekas, D. C. Fuls, A. R. Gibbs, A. D. Grauer, H.
    Groeller, J. K. Hogan, R. A. Kowalski, S. M. Larson, G. J. Leonard, D.
    Rankin, R. L. Seaman, F. C. Shelly, K. W. Wierzchos.  1.5-m reflector +
    10K CCD.
H01 Magdalena Ridge Observatory, Socorro.  Observers W. H. Ryan, E. V. Ryan.
    Measurer W. H. Ryan.  2.4-m f/8.9 Ritchey-Chretien + CCD.
V06 Catalina Sky Survey-Kuiper.  Observer J. K. Hogan.  Measurers T. Beuden,
    V. F. Carvajal, D. Fay, J. B. Fazekas, D. C. Fuls, A. R. Gibbs, A. D.
    Grauer, H. Groeller, J. K. Hogan, R. A. Kowalski, S. M. Larson, G. J.
    Leonard, D. Rankin, R. L. Seaman, F. C. Shelly, K. W. Wierzchos.  1.55-m
    reflector + 1K CCD.
Orbital elements:
2024 EW1                                                 Earth MOID = 0.0535 AU
Epoch 2024 Mar. 31.0 TT = JDT 2460400.5                 Veres                   
M 188.93204              (2000.0)            P               Q                  
n   1.07884130     Peri.   13.58565     +0.99963902     +0.00453060             
a   0.9415232      Node   346.07338     -0.01701110     +0.86966691             
e   0.1161013      Incl.    6.31710     +0.02079548     +0.49361822             
P   0.91           H   27.11          G   0.15           U   7                  
Residuals in seconds of arc
240305 G96  0.5+  0.3-    240305 H01  0.1-  0.0     240306 858  0.5-  0.0
240305 G96  0.3-  0.0     240305 H01  0.2+  0.0     240306 858  0.5-  0.4-
240305 G96  0.5-  0.1-    240305 V06  0.2+  0.2+    240306 807  0.3+  0.1-
240305 G96  0.0   0.0     240305 V06  0.1+  0.0     240306 807  0.0   0.1+
240305 H01  0.1-  0.0     240305 V06  0.0   0.1-    240306 807  0.2-  0.1-
240305 H01  0.1+  0.1+    240305 V06  0.4-  0.0
Ephemeris:
2024 EW1                 a,e,i = 0.94, 0.12, 6                   q = 0.8322
Date    TT    R. A. (2000) Decl.     Delta      r    Elong.  Phase     V
2024 02 05    14 13 38.1 +27 01 38   0.08451 1.0176   109.8    65.7    24.1
...
2024 02 20    12 59 07.9 +22 42 25   0.06154 1.0352   138.2    39.5    22.7
...
2024 02 28    11 51 26.7 +16 59 57   0.05463 1.0421   160.7    18.3    21.8
...
2024 03 05    10 55 07.8 +10 50 40   0.05429 1.0459   174.8     4.9    21.3
2024 03 06    10 46 05.6 +09 45 04   0.05469 1.0465   173.4     6.2    21.4
2024 03 07    10 37 16.9 +08 39 35   0.05523 1.0470   171.1     8.4    21.5
...
2024 03 13    09 50 50.7 +02 31 13   0.06099 1.0493   154.6    24.0    22.3
...
2024 03 21    09 08 36.4 -03 42 31   0.07363 1.0508   136.6    40.7    23.2
...
2024 04 05    08 33 24.2 -10 20 43   0.1035  1.0481   114.8    60.0    24.4
M. P. C. Staff               (C) Copyright 2024 MPC           M.P.E.C. 2024-E76
    
    
More information about the Iaude
mailing list